User: anonymous   Login
Location: Baix
(44.7118°N, 4.7648°E)
Time: 10:35:41
(UTC+00:00)
Language:

SL-16 R/B - Orbit

View from above orbital plane
View from above orbital plane
View from above satellite
View from above satellite

Ground track
Ground track

The orbit data is extracted from the following two-line orbital elements,

1 27006U 01056F   20296.88186867 -.00000046 +00000-0 -14006-5 0  9996
2 27006 099.4922 066.5797 0014779 014.1098 096.2241 13.70964423944081
Epoch (UTC): 22 October 2020 21:09:53
Eccentricity: 0.0014779
inclination: 99.4922°
perigee height: 985 km
apogee height: 1007 km
right ascension of ascending node: 66.5797°
argument of perigee: 14.1098°
revolutions per day: 13.70964423
mean anomaly at epoch: 96.2241°
orbit number at epoch: 94408

The dashed part of the orbit path shows where the satellite is in the earth's shadow,  

DLR